Tracking 29892 objects as of 21-Nov-2024
HD Live streaming from Space Station
objects crossing your sky now

STARLINK-6209

Track STARLINK-6209 now!
10-day predictions
STARLINK-6209 is classified as:


NORAD ID: 56877
Int'l Code: 2023-083B
Perigee: 565.5 km
Apogee: 567.0 km
Inclination: 43.0 °
Period: 95.8 minutes
Semi major axis: 6937 km
RCS: Unknown
Launch date: June 12, 2023
Source: United States (US)
Launch site: AIR FORCE EASTERN TEST RANGE (AFETR)
Your satellite tracking list
Your tracking list is empty




NASA's NSSDC Master Catalog

Two Line Element Set (TLE):
1 56877U 23083B   24325.87981964 -.00000369  00000-0 -12260-4 0  9992
2 56877  43.0024 136.6260 0001079 263.3980  96.6740 15.02534914 80396
Source of the keplerian elements: AFSPC